GFSNE_sfc_wetblb_195.txt.gz
Wetbulb
45.23 44.26 42.99 41.51 42.45 42.41 41.52 42.31 38.97 32.33 33.25 34.37 35.54 36.82 36.76 37.86 37.95 36.09 36.11 37.80 38.76 39.80 40.74 41.09 41.34 41.25 41.04 41.85 42.42 42.64 42.85 43.09 43.57 44.06 44.55 44.64 44.79 45.35
39.84 39.11 38.57 38.29 38.77 39.57 40.00 38.50 38.29 37.89 33.73 34.64 34.73 35.54 36.44 36.98 37.82 35.43 35.26 35.56 36.59 38.48 39.56 40.26 40.63 40.24 39.87 40.69 40.85 41.19 41.36 41.64 42.37 43.18 43.50 43.70 43.92 44.26
38.29 37.86 36.25 37.48 36.95 36.70 37.28 37.13 36.16 36.60 33.46 33.06 34.84 34.99 34.88 35.13 35.35 34.07 34.87 34.83 35.20 36.11 38.36 39.48 39.24 39.17 39.36 39.31 39.62 39.79 39.96 40.32 40.41 40.88 41.41 42.03 42.81 43.28
36.47 36.62 35.30 35.40 35.25 34.74 35.18 33.95 34.60 35.56 34.58 32.29 33.12 33.90 34.20 34.11 33.02 32.74 33.27 34.16 34.15 34.46 37.20 37.37 37.82 38.08 38.17 38.16 38.22 38.37 38.50 38.24 38.42 39.01 40.04 41.07 41.64 42.02
36.21 35.66 34.88 34.45 34.39 34.46 34.48 33.87 34.29 34.11 34.27 33.07 31.77 33.39 33.25 32.29 32.04 32.31 32.27 32.72 32.96 34.07 34.29 35.36 36.16 36.62 36.43 36.51 36.97 36.79 36.45 36.50 37.11 38.32 39.08 39.58 40.40 41.17
34.83 34.72 34.41 34.46 34.19 34.53 33.54 33.53 33.65 33.27 32.93 31.64 31.44 31.19 31.35 31.91 31.42 30.10 30.22 32.30 31.40 32.51 32.64 33.37 34.15 34.26 34.28 34.70 34.73 34.02 34.39 35.77 37.21 37.86 38.41 37.75 38.37 38.96
34.55 34.56 34.96 35.85 36.19 35.99 34.49 33.46 33.47 32.35 31.36 30.62 29.79 30.03 30.15 29.90 28.65 29.95 29.04 30.11 31.49 31.85 31.17 31.71 31.57 31.77 32.04 32.42 31.91 32.90 34.83 35.80 36.52 37.54 37.15 37.90 37.33 37.84
34.51 36.46 37.83 38.55 37.86 37.84 37.21 36.12 34.46 31.65 30.42 30.03 29.19 28.54 28.73 28.97 29.74 29.16 28.29 26.95 25.51 31.11 28.57 28.57 31.26 30.17 31.17 31.58 32.87 33.50 34.83 35.58 36.16 37.37 38.48 36.60 36.61 37.06
36.23 36.09 36.20 36.94 36.69 36.57 37.43 37.38 36.34 35.42 33.90 32.12 29.50 29.35 28.64 29.52 29.49 28.58 27.74 27.24 26.54 28.61 27.58 26.11 30.00 28.63 31.20 30.66 32.44 33.04 34.93 34.84 34.68 34.73 34.87 35.19 35.75 36.23
35.05 34.95 34.45 34.09 34.28 32.95 32.31 31.49 30.93 31.70 32.42 32.01 31.71 30.72 30.82 31.08 30.33 29.39 28.13 26.90 27.40 28.49 28.85 23.61 28.24 27.47 29.42 30.51 31.77 32.08 34.25 33.36 33.15 33.48 33.72 33.93 34.07 34.62
33.12 33.98 33.76 33.71 36.87 35.72 32.50 30.97 30.00 30.35 34.12 34.43 32.80 32.01 31.84 31.64 31.57 28.97 25.90 24.25 23.07 24.95 27.95 25.29 26.54 25.46 27.49 28.16 30.16 30.62 32.06 31.79 32.02 32.45 32.70 32.82 32.96 33.57
32.10 33.30 35.60 34.48 38.05 36.33 32.42 31.25 29.22 29.51 30.22 29.32 29.07 28.72 28.66 29.00 30.04 28.48 26.76 23.34 22.91 21.84 26.86 23.33 24.00 24.78 22.20 27.16 28.40 28.86 29.10 30.01 30.67 31.06 31.47 31.37 31.76 30.79
31.97 32.72 34.77 37.43 36.24 35.75 33.48 31.13 30.90 30.80 29.52 27.82 27.60 27.73 27.65 27.92 28.39 28.69 28.24 26.36 24.09 22.72 26.77 25.78 24.27 23.82 22.70 22.86 25.36 27.10 27.35 27.74 27.84 28.64 29.83 30.03 30.69 30.87
31.32 32.53 34.88 35.18 34.66 35.24 32.10 34.00 33.17 29.67 28.13 27.24 26.55 25.97 25.98 26.36 27.35 28.31 28.26 28.46 28.50 26.70 27.89 27.06 23.25 22.91 21.33 20.20 20.13 25.05 25.96 26.96 27.43 26.96 27.68 28.96 29.77 30.23
31.83 33.46 34.67 33.96 33.09 32.35 32.80 32.62 30.20 28.13 27.00 25.71 25.29 25.33 26.23 27.32 27.55 27.24 27.41 27.54 27.30 27.18 26.72 26.53 25.62 24.44 22.68 21.07 19.83 21.56 23.36 24.83 26.29 26.17 26.78 26.70 26.47 27.08
35.22 34.18 32.61 31.97 30.91 29.92 29.12 29.22 28.21 27.70 27.00 26.65 25.77 26.52 27.24 26.73 25.95 26.07 24.59 24.79 23.48 23.43 25.54 25.73 25.23 24.35 21.97 22.17 21.91 20.42 22.96 21.05 24.96 25.37 25.75 26.05 26.68 27.45
31.66 30.77 29.25 28.16 27.47 27.38 27.29 27.30 27.49 27.37 26.51 26.77 26.05 25.47 25.06 25.02 24.34 25.02 23.86 23.25 20.72 20.27 20.85 23.30 24.66 24.05 23.47 22.24 19.03 21.30 22.17 22.83 24.77 25.14 24.81 24.26 25.59 26.79
30.59 28.05 26.92 26.82 26.15 26.30 26.04 26.35 26.80 26.60 26.48 26.04 25.58 24.79 23.52 22.89 22.49 23.02 23.03 21.04 19.15 19.37 19.83 21.43 21.37 20.20 21.35 22.71 24.80 21.23 22.63 23.25 24.89 25.20 24.84 22.86 22.86 25.80
28.76 27.01 25.85 25.71 25.89 26.07 25.66 25.20 24.80 25.35 25.01 24.65 23.79 23.18 22.53 21.85 21.76 20.29 19.90 19.50 18.62 19.10 19.66 21.13 19.53 18.13 15.94 15.21 21.66 25.57 22.32 23.61 23.28 23.19 24.04 23.83 22.82 24.52
28.17 26.48 26.02 26.00 25.82 25.71 25.85 25.31 25.05 25.11 24.15 23.65 23.55 23.17 21.31 19.43 18.25 18.35 18.98 17.65 17.54 18.25 19.40 20.70 19.15 17.75 15.42 16.79 17.74 21.02 24.68 22.74 22.67 21.97 22.47 24.69 25.86 27.86
27.38 26.76 26.45 26.23 26.13 26.17 26.05 25.77 24.93 24.43 23.88 23.96 24.50 20.57 19.38 16.93 16.81 18.21 17.91 20.32 21.37 19.47 16.86 17.78 21.09 24.42 22.86 19.84 16.79 18.66 23.13 25.58 25.05 23.16 23.29 22.96 22.53 23.04
26.53 26.24 26.09 26.41 26.26 26.31 26.07 25.07 24.04 23.52 24.16 23.83 23.61 21.98 20.00 18.54 17.42 17.30 17.50 17.18 17.57 18.07 18.28 20.12 21.33 20.90 19.18 17.85 16.43 17.70 19.97 23.37 25.68 26.21 26.73 25.93 22.63 19.92
27.04 26.81 26.99 26.44 26.70 25.89 24.32 23.44 22.56 23.30 23.25 23.68 24.52 23.12 20.41 17.99 18.97 18.87 18.23 18.09 17.83 17.67 17.95 18.99 20.31 20.76 19.17 18.78 19.21 18.90 18.72 20.28 22.77 22.95 24.59 28.15 28.01 27.96

GFSNE_sfc_wetblb_198.txt.gz
Wetbulb
49.06 48.79 48.49 49.38 49.08 49.46 46.80 47.21 44.60 38.37 37.75 38.98 37.56 40.32 40.45 40.37 38.99 39.37 37.79 37.64 38.38 39.41 40.45 41.40 41.51 41.87 42.20 41.87 42.64 43.06 43.29 43.22 43.53 44.06 44.84 45.29 45.37 45.74
43.53 44.42 46.23 46.44 46.87 47.18 47.14 46.47 46.00 44.07 39.89 39.61 38.52 39.09 39.50 39.14 39.02 38.80 37.74 36.39 36.63 37.90 39.07 40.07 40.90 41.29 40.78 40.97 41.25 41.47 41.69 41.74 42.61 43.09 43.42 43.74 44.07 44.48
40.72 41.17 41.65 44.00 43.64 44.67 44.53 42.54 43.09 43.91 39.59 37.09 38.97 38.64 38.10 37.94 37.79 37.95 37.44 37.36 37.30 36.65 37.88 39.49 39.69 39.49 39.55 39.94 39.94 40.35 40.48 40.70 41.34 41.37 41.64 42.28 43.13 43.74
40.87 40.22 39.59 40.34 40.91 42.19 41.38 40.65 41.01 41.83 40.21 35.87 36.46 35.89 36.87 36.90 36.86 35.51 35.17 35.23 35.20 35.79 36.89 37.80 37.92 37.99 38.59 38.39 38.51 38.72 38.68 38.66 38.90 39.20 39.83 41.07 41.89 42.36
39.71 40.02 38.91 39.83 38.56 39.30 38.39 37.96 38.79 37.85 39.33 37.32 34.98 36.35 35.91 35.42 34.17 34.09 33.77 33.76 35.25 35.39 34.95 35.56 36.47 37.06 37.03 37.05 37.32 37.04 36.31 36.50 37.19 38.01 39.13 39.77 39.92 40.27
38.35 39.71 39.13 38.96 37.45 37.88 37.58 37.73 37.67 37.04 36.72 35.58 33.97 33.43 33.42 33.53 32.71 31.00 31.91 34.12 33.80 35.19 34.36 34.76 36.03 35.49 35.55 35.54 35.70 34.41 34.57 35.70 37.14 37.97 38.44 38.97 38.29 38.88
36.68 36.52 37.80 38.32 38.64 38.66 37.81 36.88 36.78 35.79 35.24 34.07 32.92 32.43 31.32 31.08 30.68 31.81 30.90 32.19 33.56 33.83 32.88 33.61 33.78 34.29 34.96 34.39 34.26 34.31 35.09 35.75 36.85 37.41 38.38 39.27 39.73 38.42
36.15 37.35 37.69 38.43 38.18 38.28 37.70 37.39 37.27 35.75 32.91 33.17 31.95 31.21 30.49 31.45 31.91 31.25 30.29 28.98 27.88 33.76 30.64 30.34 33.62 32.93 33.95 34.60 34.35 34.39 34.55 35.72 35.98 35.61 36.00 36.52 36.68 36.59
38.05 37.23 37.07 38.10 38.83 38.18 38.06 37.30 36.57 36.12 35.37 33.86 31.68 31.34 30.65 31.48 31.43 30.36 29.85 28.97 28.41 30.50 29.30 28.18 32.24 30.96 33.17 32.95 33.90 33.92 33.74 35.76 34.59 34.46 34.57 35.07 35.27 35.46
38.05 37.11 37.18 36.25 36.31 35.48 34.77 33.08 33.03 33.07 33.34 33.81 33.50 32.62 33.23 33.11 32.14 30.75 29.76 28.88 29.96 31.21 31.01 25.52 30.70 29.33 31.16 32.31 33.79 32.90 32.95 35.00 34.85 34.04 33.81 34.04 34.01 34.15
35.79 35.97 36.13 35.88 36.86 35.91 33.28 31.33 31.04 32.67 35.05 34.32 33.19 32.09 31.50 31.33 31.59 30.35 28.11 26.25 25.72 27.87 30.46 26.85 28.17 27.15 29.05 29.95 32.27 32.29 32.91 32.89 32.74 32.96 33.16 33.15 33.15 33.22
34.70 35.55 37.31 37.14 37.31 36.03 33.83 32.31 30.62 31.27 31.88 31.47 30.94 30.61 30.00 30.07 29.91 29.87 28.77 25.77 25.90 24.92 29.08 25.39 25.74 25.97 23.26 28.88 29.86 30.10 30.70 31.81 32.07 32.21 32.35 32.25 32.30 31.13
33.10 34.26 36.19 38.16 37.41 35.96 34.43 32.81 32.38 32.62 30.97 30.30 30.02 29.70 29.57 29.66 30.18 30.31 29.95 28.41 26.53 25.66 29.15 27.28 25.84 24.92 24.26 23.79 26.46 28.05 28.95 29.72 30.16 30.59 31.45 31.62 31.72 31.77
33.56 35.01 36.43 36.24 35.65 35.58 33.46 34.81 33.53 31.27 30.36 29.25 28.47 28.41 28.05 28.61 29.33 29.56 29.70 29.59 29.82 28.18 29.25 28.57 26.16 24.69 23.83 23.01 21.78 26.23 27.53 29.12 29.73 28.90 29.31 30.91 31.33 31.73
34.65 35.64 35.56 35.12 34.99 33.75 34.01 34.26 32.29 30.27 29.36 27.87 27.60 27.95 28.54 29.52 29.03 29.03 29.40 29.24 28.84 29.00 28.67 28.68 27.65 26.42 25.22 22.70 21.82 23.26 24.61 26.50 28.99 28.06 29.10 28.94 28.68 29.38
35.45 34.59 33.67 32.41 31.71 31.83 31.59 32.05 30.50 30.08 29.16 28.99 28.21 28.90 29.32 28.81 27.83 28.06 26.63 26.83 25.75 25.98 28.38 28.26 27.15 26.14 23.37 23.82 24.11 23.03 24.49 23.65 27.01 28.14 28.49 28.38 28.86 29.66
34.22 32.83 31.20 30.13 29.37 29.32 29.31 29.59 29.95 29.73 28.76 29.19 28.51 28.05 27.39 27.31 26.81 27.38 25.84 25.09 23.33 23.80 24.46 26.50 27.89 26.93 25.72 24.51 20.95 23.21 24.16 24.91 26.75 27.10 26.60 25.91 27.68 28.69
32.20 30.16 29.36 29.35 28.83 28.97 28.59 28.74 29.43 28.86 29.39 28.94 28.50 27.58 26.61 26.11 25.43 25.97 25.82 24.31 22.91 22.87 23.05 24.88 25.29 24.28 23.99 25.44 27.47 24.40 24.95 25.05 26.25 26.58 26.38 24.39 24.69 27.96
31.05 29.84 29.21 29.02 29.00 28.97 29.07 28.95 28.87 28.91 28.58 28.03 27.56 26.84 25.73 25.07 24.37 23.99 23.77 22.97 22.00 22.35 23.22 24.60 23.08 21.06 17.82 17.35 23.90 28.12 24.12 24.90 24.41 23.97 25.18 25.18 24.14 25.72
31.74 29.54 29.49 29.51 29.55 29.67 29.77 29.46 29.31 28.92 28.35 27.77 27.55 27.28 26.12 24.16 22.99 22.80 22.63 21.43 21.26 21.45 21.95 24.55 23.63 22.68 20.34 18.45 19.08 22.84 26.12 23.78 23.38 22.70 23.20 25.23 26.24 28.00
32.04 30.50 30.24 30.22 30.26 30.48 30.52 30.49 30.11 29.26 29.00 28.11 27.84 26.75 24.98 23.27 22.39 22.20 21.70 22.66 22.84 22.11 20.87 21.55 24.10 26.73 25.08 23.57 18.49 20.22 24.71 27.21 26.28 24.06 24.03 23.00 22.34 22.82
31.10 30.70 30.59 30.45 30.86 31.09 31.28 30.65 29.81 28.93 28.42 28.15 27.60 27.37 25.15 23.29 21.95 21.45 21.21 20.53 20.48 21.02 21.54 23.00 24.28 24.00 22.47 20.84 18.56 19.97 21.70 25.06 27.03 27.17 27.69 26.85 23.46 20.05
32.04 31.19 31.24 31.21 31.79 31.80 31.06 30.19 29.06 28.65 28.31 27.65 27.13 26.77 25.72 23.75 23.19 22.81 21.97 21.59 20.52 19.95 20.74 20.43 22.48 23.36 21.96 21.44 21.24 21.02 21.57 22.93 24.54 24.69 26.34 29.49 28.98 28.73

GFSNE_sfc_wetblb_201.txt.gz
Wetbulb
51.02 48.55 48.03 47.28 48.30 48.35 46.83 46.20 43.52 38.34 37.65 40.23 38.33 41.28 40.68 40.28 39.37 38.98 38.21 38.19 38.40 39.29 39.97 40.86 41.30 42.04 42.90 43.23 43.08 43.44 43.48 43.99 43.92 44.39 45.05 45.22 45.68 46.12
47.16 47.17 45.34 45.76 46.18 48.14 48.33 47.59 46.94 43.52 39.85 40.56 39.58 39.95 39.94 39.73 38.35 38.55 38.10 36.68 37.98 38.19 38.65 39.34 40.62 41.43 41.73 41.57 42.08 42.14 42.37 42.75 43.02 43.54 44.31 44.24 44.64 44.98
43.66 44.36 42.71 44.09 44.05 45.44 46.81 46.08 44.72 44.98 39.75 37.81 39.90 39.65 38.43 37.93 37.35 37.49 37.19 36.50 36.25 37.35 37.69 38.67 39.78 39.83 39.86 40.27 40.70 40.79 41.00 41.23 41.46 41.86 42.26 42.65 43.20 43.89
40.83 40.71 40.10 41.21 41.52 42.97 43.50 42.74 42.53 42.27 40.17 34.72 36.98 36.33 36.85 37.41 36.70 35.00 35.58 35.51 34.58 36.42 37.04 37.77 38.38 38.06 38.58 39.11 39.05 39.07 39.23 38.74 38.76 39.20 39.88 40.85 41.98 42.75
40.14 39.13 39.13 39.63 39.75 39.80 40.69 40.35 39.26 39.74 39.60 36.32 34.50 36.14 35.46 35.55 34.63 33.77 33.43 33.33 35.00 36.70 36.66 36.51 37.21 37.71 37.80 37.82 37.91 37.81 37.11 36.55 37.42 38.14 38.98 39.82 40.50 41.30
38.71 39.13 40.20 39.32 39.19 38.80 38.45 38.10 37.96 37.22 37.11 35.08 33.95 33.44 33.77 33.50 32.25 30.85 30.83 32.95 32.86 35.23 35.01 35.66 36.67 36.78 36.92 37.13 36.33 35.71 35.21 36.25 37.07 37.88 38.69 38.81 39.34 40.29
37.07 37.74 38.28 39.25 40.45 39.93 37.87 37.15 36.44 35.34 34.60 33.28 31.83 31.87 31.26 30.81 30.10 31.09 30.26 31.24 32.26 32.41 31.80 31.87 31.37 32.18 33.00 34.90 35.11 35.15 35.59 36.07 36.38 37.52 37.27 37.02 37.01 37.41
35.45 36.22 37.78 38.74 38.89 39.56 39.44 39.70 39.04 35.12 33.79 32.79 31.47 30.12 29.45 30.04 30.25 30.34 30.23 28.39 26.90 32.59 29.16 28.09 30.54 29.74 31.19 31.71 35.03 35.23 35.34 35.10 36.01 36.04 35.70 36.21 36.32 36.27
37.22 37.07 36.78 38.00 38.06 36.89 37.76 37.58 37.21 37.51 37.00 33.74 31.00 30.29 29.56 30.42 30.61 30.13 29.64 28.81 27.77 29.51 28.78 26.59 29.27 28.20 30.57 31.81 34.10 34.88 34.24 34.47 35.38 36.46 36.48 35.79 35.42 35.62
37.94 37.48 37.32 37.20 36.89 35.10 33.53 32.80 32.70 33.02 33.68 34.01 32.53 31.92 32.24 32.42 31.28 30.62 29.57 28.77 29.12 29.83 28.90 23.89 28.05 27.23 28.98 29.50 33.57 33.68 33.11 34.14 34.37 34.30 34.49 34.68 34.60 34.66
37.19 36.49 35.85 35.29 36.95 36.35 32.92 31.82 31.96 32.23 35.07 34.87 34.03 33.17 32.33 31.69 31.65 30.01 28.17 25.97 25.24 26.05 27.82 25.13 26.21 25.83 26.80 27.05 28.50 32.83 32.87 33.09 33.37 33.73 33.98 34.02 33.97 33.95
35.28 36.42 37.65 36.25 36.93 36.29 32.42 31.22 29.88 30.62 30.65 30.24 29.86 30.26 30.35 29.96 30.18 29.59 28.27 25.33 25.30 23.93 26.94 25.07 25.03 24.53 21.38 25.40 26.41 27.20 27.55 31.10 32.59 33.06 33.09 33.33 33.46 29.51
34.43 35.42 37.16 37.78 36.54 35.89 34.67 32.43 31.47 31.93 30.70 29.40 29.23 28.77 28.74 28.77 28.84 29.27 28.90 27.62 25.19 25.26 28.75 27.30 24.12 24.28 23.46 22.43 24.23 25.61 26.27 26.63 26.69 27.62 31.59 32.08 32.36 31.92
33.81 35.60 36.49 36.73 36.60 34.97 34.34 34.99 33.79 31.73 29.51 28.60 27.72 27.40 27.32 27.96 28.41 28.85 28.91 28.88 28.80 27.26 28.27 27.63 23.82 23.54 21.96 20.46 20.30 24.09 24.66 25.28 25.67 25.91 26.67 29.92 31.54 31.74
35.62 36.48 36.15 36.28 35.22 34.32 35.58 34.38 32.10 29.27 28.50 27.35 27.03 27.58 28.13 28.70 28.39 28.27 28.90 28.43 27.81 27.74 28.03 27.52 25.59 24.76 24.56 22.51 21.59 22.04 22.40 23.65 25.29 24.78 25.28 25.75 25.89 26.38
36.02 34.62 34.28 33.24 32.62 32.67 31.99 32.34 29.42 29.02 28.39 28.46 27.67 27.82 28.32 28.32 27.09 27.44 25.36 25.70 24.31 24.50 27.37 27.63 27.51 26.62 23.35 23.49 22.87 21.15 22.62 20.56 23.42 24.56 24.89 25.28 25.85 26.33
33.65 32.13 30.38 29.55 28.80 28.60 28.38 28.61 28.77 28.61 28.16 28.38 27.73 27.23 27.05 26.77 26.37 26.31 24.76 23.82 22.88 22.61 22.55 24.39 25.55 27.34 26.55 24.64 21.07 21.29 21.06 22.09 23.62 23.76 23.98 22.85 24.20 25.22
32.18 29.89 28.76 28.22 27.82 27.74 27.48 27.63 28.12 28.47 28.15 28.02 27.34 27.04 25.79 24.55 24.32 25.79 25.92 24.65 22.79 22.43 21.46 22.14 22.85 22.85 22.32 22.91 26.89 21.66 22.41 22.23 23.39 23.68 23.53 21.13 21.35 24.12
30.29 29.17 28.34 28.12 28.07 27.92 27.99 27.78 27.48 27.72 27.93 27.05 26.41 24.82 25.33 25.47 24.61 23.44 23.22 23.40 22.32 22.31 21.89 22.20 21.15 20.23 17.90 15.37 20.32 27.60 20.61 21.21 21.00 21.54 21.82 21.39 20.99 22.52
30.89 28.64 28.44 28.52 28.38 28.31 28.24 27.97 27.91 28.31 27.49 27.32 26.12 25.75 27.19 25.69 23.67 22.43 22.46 21.79 21.12 20.98 20.44 20.71 20.39 19.08 19.16 18.20 19.01 21.67 26.38 20.76 19.83 20.45 21.46 23.16 24.30 27.97
31.97 29.59 29.14 28.86 28.88 29.20 29.53 30.37 29.87 28.55 28.01 27.43 27.19 26.78 26.85 24.85 22.85 21.87 21.47 23.27 23.10 21.24 19.02 19.07 20.07 26.65 23.02 21.67 18.00 17.92 20.96 26.66 25.78 22.72 22.87 22.20 21.33 21.66
31.39 30.02 29.58 29.51 29.74 30.75 30.63 29.77 29.21 28.62 28.19 27.49 26.87 27.64 27.18 25.92 23.07 21.81 21.41 20.55 20.18 20.05 19.85 20.79 20.98 21.49 21.42 19.97 17.94 18.30 19.32 22.05 25.84 27.60 28.34 27.59 23.31 20.08
30.19 29.91 29.94 30.04 30.81 30.39 29.57 29.58 29.28 29.08 28.57 27.77 26.07 25.71 26.67 25.17 24.41 23.72 22.77 21.75 20.60 20.13 20.15 19.75 20.85 21.30 19.93 19.37 20.19 19.10 18.91 20.04 22.31 22.52 23.94 29.33 30.00 30.35

GFSNE_sfc_wetblb_207.txt.gz
Wetbulb
52.61 50.57 51.22 49.88 49.23 45.45 46.22 45.36 40.67 34.51 33.76 34.27 34.79 36.36 37.29 37.98 39.56 37.36 36.27 40.83 40.02 39.83 40.02 40.16 40.31 40.90 41.67 42.88 43.42 43.69 43.75 43.66 43.94 44.55 45.24 45.43 45.96 46.31
51.44 50.22 49.74 48.70 47.48 46.22 45.69 44.34 43.15 40.28 35.60 34.93 35.28 34.98 36.94 37.85 39.23 34.92 36.14 39.13 39.22 39.68 39.39 39.50 39.62 40.25 40.89 41.25 41.30 41.83 42.21 42.27 42.54 43.01 43.67 43.85 44.13 44.48
49.85 49.21 48.06 48.04 47.06 45.95 45.81 45.10 42.95 40.66 36.31 33.45 34.90 34.10 34.10 34.29 34.77 34.37 36.13 33.80 33.40 38.21 38.70 38.97 39.12 39.61 40.16 39.42 39.68 40.23 40.63 40.74 40.73 40.52 41.27 42.19 42.85 43.12
47.90 46.63 45.83 46.84 46.13 46.06 45.63 44.56 42.64 39.18 35.62 33.05 32.95 31.70 31.65 33.35 31.84 31.30 33.70 34.12 31.41 35.87 37.86 38.36 37.93 38.71 39.37 39.52 39.03 38.96 38.77 38.85 38.27 38.34 39.93 40.64 41.41 42.18
47.00 46.07 45.13 45.07 43.95 43.63 42.61 40.69 39.31 37.92 36.20 33.34 30.74 30.84 30.43 30.36 29.75 29.92 29.97 29.51 32.44 36.01 37.78 36.85 36.88 37.70 38.25 38.45 38.08 38.16 37.00 36.78 36.99 38.04 38.74 39.14 40.15 40.18
43.56 44.36 44.59 44.81 43.28 41.66 40.45 38.59 37.67 35.94 34.48 32.61 30.92 28.95 29.02 28.74 28.06 27.19 26.97 27.70 28.35 32.95 34.40 34.72 35.70 35.97 36.06 36.64 36.59 35.95 35.78 36.32 37.36 38.00 37.79 38.49 37.97 38.22
39.58 40.12 40.21 40.38 41.45 40.61 38.52 36.70 36.01 33.59 32.41 31.04 28.85 28.00 26.61 26.68 25.64 26.95 25.96 26.36 26.98 28.48 27.34 27.08 27.67 28.24 29.10 32.76 33.63 34.85 36.02 36.39 36.81 36.57 37.24 38.16 38.34 38.43
37.52 38.68 39.86 40.58 40.63 40.76 39.53 38.03 35.18 31.47 29.34 28.39 26.44 26.07 25.32 25.88 25.64 26.34 26.23 24.79 23.57 27.33 25.09 25.13 27.20 28.02 28.90 28.09 33.70 34.63 35.16 35.77 35.11 35.87 36.38 36.79 36.76 36.95
37.20 37.36 37.74 38.64 38.38 37.19 39.73 39.43 38.46 37.78 34.77 28.61 26.62 25.25 25.04 26.30 26.95 26.70 25.68 24.89 24.89 26.94 27.17 25.44 26.95 25.87 27.11 29.30 32.59 33.66 34.52 33.95 35.01 35.07 35.30 35.62 36.07 36.15
36.85 36.08 34.94 33.79 33.80 32.52 30.83 29.82 29.34 29.69 30.42 31.25 28.12 27.84 28.20 29.54 28.32 28.14 27.17 27.87 28.29 28.63 28.21 24.27 26.41 25.89 26.47 25.83 31.13 33.05 33.22 33.67 33.48 33.93 34.45 34.85 34.58 34.39
34.74 34.17 33.87 33.23 36.21 35.31 30.75 29.92 29.78 30.82 35.51 35.86 35.39 35.28 34.75 34.13 31.81 29.44 27.19 26.63 25.38 25.45 26.69 25.18 25.48 25.19 26.17 25.61 25.82 31.39 32.32 32.54 32.23 32.94 33.25 33.41 33.28 33.44
33.29 33.87 36.62 34.36 36.43 34.91 29.61 28.30 27.04 26.89 27.23 27.13 27.35 29.64 30.03 30.99 32.09 29.11 27.92 25.22 25.31 23.41 26.49 25.44 25.32 23.63 21.26 25.75 26.11 25.27 24.92 29.17 31.09 31.24 31.59 31.80 32.01 27.76
32.52 31.75 33.23 37.48 36.79 35.60 33.27 28.49 28.05 28.25 29.96 26.95 26.74 26.97 27.59 27.63 27.07 27.40 27.92 27.81 25.20 23.99 27.20 24.83 23.70 25.11 23.39 22.92 24.96 25.63 24.23 23.95 24.74 25.58 28.61 29.64 30.91 30.64
31.87 32.17 34.61 37.02 36.67 35.85 34.00 35.51 34.35 31.47 28.01 27.32 26.90 26.03 26.12 27.29 28.05 28.31 28.30 28.04 28.21 26.79 27.54 26.81 19.05 21.53 19.59 21.54 21.03 23.99 24.46 24.60 23.79 23.04 23.85 26.88 29.06 29.75
33.88 35.67 36.90 36.69 36.58 35.73 35.91 34.63 32.50 28.50 27.73 26.66 26.28 26.77 27.50 27.88 28.12 27.77 28.13 28.39 28.57 28.01 28.05 27.07 23.56 23.44 20.72 20.89 21.35 22.01 22.56 22.99 23.55 22.11 20.73 22.91 22.93 23.79
36.66 34.42 34.28 34.65 34.81 33.80 32.45 30.29 28.28 27.98 27.63 27.50 26.96 27.23 27.47 27.56 26.21 27.47 26.49 26.34 24.55 24.77 26.84 26.40 26.10 24.00 19.67 21.26 21.97 20.83 22.41 20.49 22.07 22.83 22.64 22.90 23.93 24.51
32.40 29.98 29.14 29.22 29.11 28.74 29.05 28.98 27.77 27.51 27.01 26.93 26.80 26.48 26.95 27.18 26.84 26.90 24.85 22.52 19.06 20.98 21.56 21.95 22.91 24.15 23.21 21.23 19.05 20.47 20.17 20.26 21.70 22.08 22.31 21.83 23.03 23.60
30.27 28.10 27.23 27.28 26.90 26.47 26.01 26.06 26.54 27.94 27.00 26.96 26.33 26.28 25.72 24.22 23.01 22.20 20.69 18.28 20.60 21.42 19.55 16.36 13.16 11.10 13.57 17.62 25.46 19.81 20.00 19.80 21.37 22.05 22.07 20.22 20.30 22.43
28.73 27.69 26.75 26.47 26.23 26.22 26.12 26.26 26.02 27.48 27.62 26.55 25.57 23.31 19.28 18.50 23.67 18.64 18.31 22.57 22.43 22.19 20.36 15.35 7.93 7.27 13.78 12.50 17.69 26.18 18.89 20.53 20.82 20.20 20.64 19.85 19.00 20.53
28.61 27.92 27.54 27.64 27.46 27.16 26.97 26.57 26.23 25.62 24.15 23.60 20.53 18.05 17.02 16.71 14.58 16.70 17.43 22.73 22.43 22.10 17.28 8.80 5.79 7.85 14.98 14.89 16.09 19.97 25.12 19.75 18.96 18.42 18.98 20.75 22.55 26.76
29.94 28.72 28.10 27.69 26.80 25.82 25.44 23.76 22.94 22.57 23.26 19.94 19.33 19.56 20.47 19.24 20.86 20.96 20.61 25.95 25.51 17.70 15.12 16.52 16.20 25.36 21.74 15.00 15.18 16.02 19.27 24.90 24.25 20.85 20.90 20.15 19.41 20.79
29.84 27.60 27.40 25.97 24.42 22.40 21.79 22.16 21.97 24.29 24.52 23.41 23.46 21.81 22.90 21.08 21.22 20.43 18.44 16.19 19.01 19.05 18.23 19.45 18.50 8.87 9.04 16.35 14.97 15.74 17.19 20.21 24.27 26.17 26.66 25.87 21.48 18.44
26.88 26.57 25.61 25.95 25.72 24.66 22.56 22.69 23.78 26.08 25.99 24.99 23.51 24.20 24.31 22.57 23.15 24.47 24.44 24.45 22.97 20.38 18.74 18.93 19.13 11.64 17.21 16.87 18.70 17.55 16.98 17.70 19.26 19.20 20.83 26.92 27.81 28.14